Weather History for Greybull, WY

Change the Weather History Date:

Sunday, March 17, 2013

  Actual Average Record
Temperature  
Mean Temperature 34 °F 38 °F  
Max Temperature 39 °F 52 °F 72 °F (2007)
Min Temperature 28 °F 24 °F 17 °F (2002)
Degree Days  
Heating Degree Days 31 27  
Month to date heating degree days 461 522  
Since 1 July heating degree days 6335 6493  
Cooling Degree Days 0 0  
Month to date cooling degree days 0 0  
Year to date cooling degree days 0 0  
Moisture  
Dew Point 23 °F    
Average Humidity 57    
Maximum Humidity 82    
Minimum Humidity 32    
Precipitation  
Precipitation T in 0.01 in 0.04 in (2014)
Month to date precipitation 0.01 0.17  
Year to date precipitation 0.43 0.58  
Sea Level Pressure  
Sea Level Pressure 29.62 in    
Wind  
Wind Speed 13 mph (NNW)    
Max Wind Speed 46 mph    
Max Gust Speed 55 mph    
Visibility 8 miles    
Events Snow    
T = Trace of Precipitation, MM = Missing Value Source: NWS Daily Summary

Daily Weather History Graph

Daily Weather History Graph

Search for Another Location

Airport:

Trip Planner

Search our weather history database for the weather conditions in past years. The results will help you decide how hot, cold, wet, or windy it might be!

Date:

Astronomy

Mar. 17, 2013 Rise Set
Actual Time 7:20 AM MDT 7:21 PM MDT
Civil Twilight 6:51 AM MDT 7:50 PM MDT
Nautical Twilight 6:17 AM MDT 8:24 PM MDT
Astronomical Twilight 5:42 AM MDT 8:59 PM MDT
Moon 10:22 AM MDT (3/17) 12:44 AM MDT (3/17)
Length of Visible Light 12h 58m
Length of Day
12h 00m
Waxing Crescent, 32% of the Moon is Illuminated
Mar 17
Waxing Crescent
Mar 19
First Quarter
Mar 27
Full
Apr 2
Last Quarter
Apr 10
New

Hourly Weather History & Observations

Time (MDT) Temp. Windchill Dew Point Humidity Pressure Visibility Wind Dir Wind Speed Gust Speed Precip Events Conditions
12:53 AM 37.0 °F 33.3 °F 28.9 °F 73% 29.66 in 10.0 mi SE 4.6 mph - N/A   Clear
1:53 AM 35.1 °F 32.2 °F 28.0 °F 76% 29.62 in 10.0 mi SE 3.5 mph - N/A   Clear
2:53 AM 36.0 °F 30.3 °F 28.0 °F 73% 29.57 in 10.0 mi SSW 6.9 mph - N/A   Clear
3:53 AM 37.9 °F 35.5 °F 28.9 °F 70% 29.52 in 10.0 mi South 3.5 mph - N/A   Partly Cloudy
4:53 AM 35.1 °F - 28.9 °F 78% 29.48 in 10.0 mi Calm Calm - N/A   Mostly Cloudy
5:53 AM 34.0 °F 28.8 °F 28.0 °F 79% 29.48 in 10.0 mi NNW 5.8 mph - N/A   Overcast
6:53 AM 34.0 °F - 28.9 °F 82% 29.47 in 10.0 mi Calm Calm - N/A   Scattered Clouds
7:53 AM 33.1 °F 27.7 °F 28.9 °F 85% 29.47 in 10.0 mi SSE 5.8 mph - N/A   Mostly Cloudy
8:53 AM 35.1 °F 32.2 °F 28.9 °F 78% 29.49 in 10.0 mi ESE 3.5 mph - N/A   Overcast
9:26 AM 37.4 °F 24.4 °F 28.4 °F 70% 29.48 in 10.0 mi NNW 33.4 mph 42.6 mph N/A   Mostly Cloudy
9:53 AM 37.9 °F 25.5 °F 28.9 °F 70% 29.52 in 10.0 mi NNW 31.1 mph 43.7 mph N/A   Mostly Cloudy
10:31 AM 35.6 °F 23.2 °F 30.2 °F 81% 29.51 in 1.8 mi NNW 26.5 mph 39.1 mph 0.00 in Snow Light Snow
10:38 AM 35.6 °F 23.7 °F 30.2 °F 81% 29.50 in 1.5 mi North 24.2 mph 33.4 mph 0.00 in Snow Light Snow
10:43 AM 35.6 °F 24.8 °F 30.2 °F 81% 29.50 in 3.0 mi North 19.6 mph 32.2 mph 0.00 in Snow Light Snow
10:53 AM 36.0 °F 24.2 °F 30.0 °F 79% 29.54 in 5.0 mi North 24.2 mph 31.1 mph 0.00 in Snow Light Snow
11:09 AM 37.4 °F 28.2 °F 30.2 °F 75% 29.51 in 10.0 mi NNW 16.1 mph 25.3 mph 0.00 in   Overcast
11:53 AM 37.9 °F 29.6 °F 30.0 °F 73% 29.57 in 10.0 mi NNW 13.8 mph - 0.00 in   Overcast
12:47 PM 33.8 °F 20.5 °F 24.8 °F 70% 29.54 in 1.8 mi NNW 27.6 mph 54.1 mph 0.00 in Snow Light Snow
12:53 PM 35.1 °F 23.5 °F 23.0 °F 61% 29.60 in 1.8 mi NNW 21.9 mph 47.2 mph 0.00 in Snow Light Snow
12:56 PM 37.4 °F 25.2 °F 21.2 °F 52% 29.54 in 3.0 mi NNW 28.8 mph 38.0 mph 0.00 in Snow Light Snow
1:53 PM 37.0 °F 23.5 °F 18.0 °F 46% 29.65 in 10.0 mi NNW 35.7 mph 50.6 mph 0.00 in   Overcast
2:08 PM 30.2 °F 13.9 °F 24.8 °F 80% 29.63 in 1.8 mi WNW 36.8 mph 55.2 mph 0.00 in Snow Light Snow
2:25 PM 30.2 °F 15.4 °F 24.8 °F 80% 29.61 in 1.2 mi NNW 28.8 mph 43.7 mph 0.00 in Snow Light Snow
2:33 PM 30.2 °F 14.9 °F 24.8 °F 80% 29.61 in 2.5 mi NNW 31.1 mph 38.0 mph 0.00 in Snow Light Snow
2:40 PM 30.2 °F 15.7 °F 24.8 °F 80% 29.60 in 6.0 mi NNW 27.6 mph 38.0 mph 0.00 in Snow Light Snow
2:53 PM 34.0 °F 20.8 °F 19.9 °F 56% 29.67 in 10.0 mi NNW 27.6 mph 41.4 mph 0.00 in   Overcast
3:53 PM 35.1 °F 24.5 °F 18.0 °F 50% 29.69 in 10.0 mi North 18.4 mph 31.1 mph N/A   Clear
4:53 PM 37.0 °F 28.1 °F 10.0 °F 33% 29.72 in 10.0 mi NNW 15.0 mph 24.2 mph N/A   Overcast
5:53 PM 36.0 °F 25.6 °F 14.0 °F 41% 29.77 in 10.0 mi West 18.4 mph - N/A   Overcast
6:53 PM 37.0 °F 29.8 °F 10.0 °F 33% 29.79 in 10.0 mi WNW 10.4 mph - N/A   Scattered Clouds
7:53 PM 36.0 °F 26.3 °F 9.0 °F 33% 29.83 in 10.0 mi NW 16.1 mph 27.6 mph N/A   Overcast
8:53 PM 35.1 °F 25.9 °F 10.9 °F 37% 29.85 in 10.0 mi NNW 13.8 mph - N/A   Overcast
9:53 PM 35.1 °F 26.9 °F 12.9 °F 40% 29.86 in 10.0 mi North 11.5 mph - N/A   Overcast
10:53 PM 32.0 °F 26.4 °F 15.1 °F 50% 29.90 in 10.0 mi WNW 5.8 mph - N/A   Overcast
11:53 PM 32.0 °F 24.8 °F 15.1 °F 50% 29.91 in 10.0 mi NW 8.1 mph - N/A   Mostly Cloudy